Clarksville, TN

10:55 AM CDT on April 26, 2017 (GMT -0500)
Outlaw

Weather History for KCKV - September, 2012

Change the Weather History Date:

Wednesday, September 26, 2012

  Actual Average Record
Temperature  
Mean Temperature 75 °F 66 °F  
Max Temperature 85 °F 78 °F 91 °F (1986)
Min Temperature 64 °F 54 °F 37 °F (2001)
Degree Days  
Heating Degree Days 0 2  
Month to date heating degree days 35 15  
Since 1 July heating degree days 35 16  
Cooling Degree Days 10 3  
Month to date cooling degree days 155 168  
Year to date cooling degree days 1388  
Growing Degree Days 24 (Base 50)    
Moisture  
Dew Point 60 °F    
Average Humidity 61    
Maximum Humidity 73    
Minimum Humidity 49    
Precipitation  
Precipitation 0.11 in 0.13 in 6.14 in (2002)
Month to date precipitation 3.72 2.98  
Year to date precipitation 36.11  
Sea Level Pressure  
Sea Level Pressure 30.09 in    
Wind  
Wind Speed 9 mph (SW)    
Max Wind Speed 28 mph    
Max Gust Speed 32 mph    
Visibility 10 miles    
Events Rain , Thunderstorm    
T = Trace of Precipitation, MM = Missing Value Source: NWS Daily Summary

Daily Weather History Graph

Daily Weather History Graph

Search for Another Location

Airport or City:

Trip Planner

Search our weather history database for the weather conditions in past years. The results will help you decide how hot, cold, wet, or windy it might be!

Date:

Astronomy

Sep. 26, 2012 Rise Set
Actual Time 6:41 AM CDT 6:39 PM CDT
Civil Twilight 6:15 AM CDT 7:05 PM CDT
Nautical Twilight 5:45 AM CDT 7:35 PM CDT
Astronomical Twilight 5:15 AM CDT 8:05 PM CDT
Moon 4:35 PM CDT 3:11 AM CDT
Length of Visible Light 12h 50m
Length of Day
11h 58m
Waxing Gibbous, 88% of the Moon is Illuminated
Sep 26
Waxing Gibbous
Sep 29
Full
Oct 8
Last Quarter
Oct 15
New
Oct 21
First Quarter

Hourly Weather History & Observations

Time (CDT) Temp. Heat Index Dew Point Humidity Pressure Visibility Wind Dir Wind Speed Gust Speed Precip Events Conditions
12:52 AM 71.1 °F - 57.0 °F 61% 30.03 in 10.0 mi SSW 11.5 mph - N/A   Clear
1:52 AM 71.1 °F - 51.1 °F 49% 30.03 in 10.0 mi SSW 11.5 mph - N/A   Clear
3:52 AM 68.0 °F - 51.1 °F 55% 30.03 in 10.0 mi South 3.5 mph - N/A   Clear
4:52 AM 66.9 °F - 52.0 °F 59% 30.05 in 10.0 mi SW 6.9 mph - N/A   Clear
5:52 AM 66.0 °F - 53.1 °F 63% 30.06 in 10.0 mi South 8.1 mph - N/A   Clear
6:52 AM 64.0 °F - 53.1 °F 67% 30.08 in 10.0 mi South 4.6 mph - N/A   Clear
7:52 AM 66.0 °F - 54.0 °F 65% 30.10 in 10.0 mi South 6.9 mph - N/A   Clear
8:52 AM 70.0 °F - 55.0 °F 59% 30.12 in 10.0 mi SSW 11.5 mph - N/A   Clear
9:52 AM 73.9 °F - 55.9 °F 53% 30.11 in 10.0 mi SSW 12.7 mph - N/A   Clear
10:52 AM 77.0 °F - 61.0 °F 58% 30.11 in 10.0 mi South 11.5 mph - N/A   Clear
11:52 AM 80.1 °F 81.7 °F 64.0 °F 58% 30.09 in 10.0 mi SSW 12.7 mph - N/A   Clear
1:52 PM 84.0 °F 86.5 °F 66.9 °F 56% 30.05 in 10.0 mi SW 11.5 mph - N/A   Scattered Clouds
2:52 PM 84.0 °F 86.5 °F 66.9 °F 56% 30.04 in 9.0 mi SSW 13.8 mph 19.6 mph N/A   Mostly Cloudy
3:52 PM 82.9 °F 84.6 °F 64.9 °F 54% 30.04 in 10.0 mi SW 12.7 mph 20.7 mph N/A   Partly Cloudy
4:52 PM 82.0 °F 84.1 °F 66.0 °F 58% 30.04 in 10.0 mi SSW 15.0 mph - N/A   Clear
5:52 PM 80.1 °F 82.1 °F 66.0 °F 62% 30.05 in 10.0 mi SSW 6.9 mph - N/A   Clear
7:52 PM 73.9 °F - 64.9 °F 73% 30.09 in 10.0 mi SSW 6.9 mph - N/A   Clear
8:47 PM 75.2 °F - 64.4 °F 69% 30.17 in 10.0 mi WNW 27.6 mph 32.2 mph N/A Thunderstorm Mostly Cloudy
8:52 PM 71.1 °F - 62.1 °F 73% 30.16 in 7.0 mi NW 21.9 mph 32.2 mph 0.00 in Rain , Thunderstorm Light Thunderstorms and Rain
9:04 PM 66.2 °F - 62.6 °F 88% 30.17 in 5.0 mi WNW 10.4 mph - 0.07 in Rain , Thunderstorm Light Thunderstorms and Rain
9:33 PM 66.2 °F - 62.6 °F 88% 30.17 in 10.0 mi WNW 4.6 mph - 0.07 in   Mostly Cloudy
9:52 PM 66.0 °F - 63.0 °F 90% 30.16 in 10.0 mi West 4.6 mph - 0.07 in   Mostly Cloudy
10:52 PM 66.0 °F - 64.0 °F 93% 30.10 in 10.0 mi SE 6.9 mph - 0.04 in Rain Light Rain
11:52 PM 66.0 °F - 64.0 °F 93% 30.08 in 10.0 mi Calm Calm - 0.00 in   Mostly Cloudy